Weather in Pyalma

Russia / Republic of Karelia     62°26′34″N   35°51′43″E
temp.,
°C
wind,
m/s
gust,
m/s
humid.,
%
clouds,
%
prec.,
mm/h
press.,
hPa
HPBL,
m
6 march, sat
sat600:00−16wnw22981 0.0 101220
03:00−18sw119920 0.0 101220
06:00−17sw129986 0.0 101120
09:00−15ssw229793 0.1 101067
12:00−11s3494100 0.0 1008227
15:00−9s51092100 0.1 1005418
18:00−7s61288100 0.1 1001593
21:00−6s81593100 0.6 995873
7 march, sun
sun700:00−6sse81593100 1.4 989923
03:00−6sse71494100 3.5 987795
06:00−5se51095100 1.8 986543
09:00−8w4795100 2.8 988268
12:00−7w1292100 0.1 990228
15:00−5ene4889100 0.2 992566
18:00−8ne61192100 0.3 994638
21:00−11ne61385100 0.4 998542
8 march, mon
mon800:00−12nne5128888 0.0 1000465
03:00−15nne5128994 0.0 1004364
06:00−18nne5119192 0.0 1006312
09:00−19nne5109188 0.0 1008341
12:00−16n498869 0.0 1010465
15:00−16n598671 0.0 1012515
18:00−19n48901 0.0 1013268
21:00−23n33951 0.0 101558
9 march, tue
tue900:00−26n23960 0.0 101620
03:00−27n23960 0.0 101722
06:00−28nne23950 0.0 101819
09:00−27nne12930 0.0 101969
12:00−21n12840 0.0 1019296
15:00−18nnw23810 0.0 1020311
18:00−21nnw11920 0.0 101920
21:00−23ne12900 0.0 102020
10 march, wed
wed1000:00−25ene11901 0.0 102120
03:00−26e11911 0.0 102019
06:00−27ese11920 0.0 102019
09:00−24se12920 0.0 101954
12:00−19s23890 0.0 1018275
15:00−18s249239 0.0 1016300
18:00−20sse239647 0.0 101321
21:00−21sse379623 0.0 1011109